Regional Weather Roundup
Issued by NWS

Home | Current Version | Previous Version | Text Only | Print | Product List | Glossary On
Versions: 1 2 3 4 5 6 7 8 9 10 11 12 13 14 15 16 17 18 19 20 21 22 23 24 25 26 27 28 29 30 31 32 33 34 35 36 37 38 39 40 41 42 43 44 45 46 47 48 49 50
000
ASUS43 KMKX 271821
RWRWI

WISCONSIN REGIONAL WEATHER ROUNDUP
NATIONAL WEATHER SERVICE MILWAUKEE/SULLIVAN WI
100 PM CDT MON APR 27 2015

NOTE: "FAIR" INDICATES FEW OR NO CLOUDS BELOW 12,000 FEET WITH NO
SIGNIFICANT WEATHER AND/OR OBSTRUCTIONS TO VISIBILITY.

WIZ001-002-006>008-014>016-023>028-271900-
NORTHWEST WISCONSIN

CITY           SKY/WX    TMP DP  RH WIND       PRES   REMARKS
SUPERIOR ARPT  SUNNY     60  32  34 E3        30.22F
6HR MIN TEMP:  29; 6HR MAX TEMP:  60;

ASHLAND        SUNNY     59  34  39 N8        30.22F
6HR MIN TEMP:  30; 6HR MAX TEMP:  59;

HAYWARD        SUNNY     62  26  25 NW7       30.19F
6HR MIN TEMP:  29; 6HR MAX TEMP:  62;

SIREN          SUNNY     64  25  23 N9        30.21F
6HR MIN TEMP:  30; 6HR MAX TEMP:  64;

CUMBERLAND     SUNNY     59  27  29 NW9G18    30.20F
RICE LAKE      SUNNY     61  29  30 N12G17    30.21F
6HR MIN TEMP:  33; 6HR MAX TEMP:  61;

CHETEK         SUNNY     61  33  34 NW3       30.19F
6HR MIN TEMP:  34; 6HR MAX TEMP:  61;

LADYSMITH      SUNNY     62  31  30 NW10G16   30.19F
6HR MIN TEMP:  35; 6HR MAX TEMP:  61;

EAU CLAIRE     SUNNY     64  29  26 NW12      30.18F
6HR MIN TEMP:  35; 6HR MAX TEMP:  64;

MENOMONIE      SUNNY     64  27  24 N13G21    30.19F
6HR MIN TEMP:  35; 6HR MAX TEMP:  63;

NEW RICHMOND   SUNNY     64  25  22 NW9G22    30.21F
6HR MIN TEMP:  35; 6HR MAX TEMP:  64;

OSCEOLA        SUNNY     62  29  28 NW8       30.24F
6HR MIN TEMP:  30; 6HR MAX TEMP:  62;

$$

WIZ003>005-009-010-017-018-271900-
NORTH CENTRAL WISCONSIN

CITY           SKY/WX    TMP DP  RH WIND       PRES   REMARKS
MANITOWISH WTR SUNNY     56  30  36 N10G16    30.16S
6HR MIN TEMP:  33; 6HR MAX TEMP:  57;

ARBOR VITAE    SUNNY     59  31  33 N15G22    30.15S
6HR MIN TEMP:  33; 6HR MAX TEMP:  59;

WOODRUFF       SUNNY     59  31  33 N15G22    30.15S
6HR MIN TEMP:  33; 6HR MAX TEMP:  59;

RHINELANDER    SUNNY     60  30  32 NW12G18   30.15S
6HR MIN TEMP:  37; 6HR MAX TEMP:  60;

EAGLE RIVER    SUNNY     58  25  28 N10G22    30.14S
6HR MIN TEMP:  36; 6HR MAX TEMP:  59;

LAND O LAKES   SUNNY     57  27  30 N13G20    30.16R
6HR MIN TEMP:  37; 6HR MAX TEMP:  57;

PHILLIPS       SUNNY     58  30  34 N13G18    30.16S
6HR MIN TEMP:  30; 6HR MAX TEMP:  59;

TOMAHAWK       SUNNY     59  29  31 N14G21    30.16S
6HR MIN TEMP:  33; 6HR MAX TEMP:  59;

MEDFORD        SUNNY     60  33  35 N8G20     30.15F
6HR MIN TEMP:  34; 6HR MAX TEMP:  60;

MERRILL        SUNNY     60  31  33 N10G18    30.13F
6HR MIN TEMP:  35; 6HR MAX TEMP:  61;

$$

WIZ029-030-035-036-043>047-271900-
CENTRAL WISCONSIN

CITY           SKY/WX    TMP DP  RH WIND       PRES   REMARKS
WAUSAU         SUNNY     60  29  30 N7        30.12F
6HR MIN TEMP:  38; 6HR MAX TEMP:  61;

MOSINEE        SUNNY     61  30  31 N9        30.15F
MARSHFIELD     SUNNY     62  31  31 N15G23    30.15F
6HR MIN TEMP:  38; 6HR MAX TEMP:  62;

STEVENS POINT  SUNNY     59  29  32 N7G17     30.13F
6HR MIN TEMP:  36; 6HR MAX TEMP:  59;

WAUPACA        SUNNY     64  28  25 W6        30.12F
6HR MIN TEMP:  39; 6HR MAX TEMP:  64;

WAUTOMA        SUNNY     63  29  27 W10G18    30.13F
6HR MIN TEMP:  39; 6HR MAX TEMP:  63;

WISC RAPIDS    SUNNY     61  28  28 N15G23    30.15F
6HR MIN TEMP:  39; 6HR MAX TEMP:  63;

CAMP DOUGLAS   MOSUNNY   64  32  29 N7G20     30.14F
$$

WIZ011>013-019>022-031-037>040-048>050-271900-
NORTHEAST WISCONSIN

CITY           SKY/WX    TMP DP  RH WIND       PRES   REMARKS
ANTIGO         SUNNY     60  31  34 NE8       30.13F
SHAWANO        SUNNY     64  30  28 E6        30.11F
6HR MIN TEMP:  39; 6HR MAX TEMP:  62;

OCONTO         SUNNY     50  34  54 E10       30.14S
6HR MIN TEMP:  39; 6HR MAX TEMP:  54;

STURGEON BAY   SUNNY     54  34  47 N10       30.15S
6HR MIN TEMP:  39; 6HR MAX TEMP:  52;

GREEN BAY      SUNNY     56  35  45 CALM      30.14S
6HR MIN TEMP:  41; 6HR MAX TEMP:  57;

MANITOWOC      SUNNY     51  35  54 NE8G17    30.14F
6HR MIN TEMP:  42; 6HR MAX TEMP:  52;

APPLETON       MOSUNNY   57  30  35 N14       30.13F
CLINTONVILLE   MOSUNNY   61  28  29 E3        30.11F
OSHKOSH        MOSUNNY   57  36  45 E10       30.13F
6HR MIN TEMP:  41; 6HR MAX TEMP:  57;

$$

WIZ032>034-041-042-053>061-271900-
SOUTHWEST WISCONSIN

CITY           SKY/WX    TMP DP  RH WIND       PRES   REMARKS
LA CROSSE      SUNNY     62  34  35 W10       30.17F
6HR MIN TEMP:  40; 6HR MAX TEMP:  62;

SPARTA         SUNNY     62  29  28 N13       30.16F
6HR MIN TEMP:  31; 6HR MAX TEMP:  62;

VIROQUA        SUNNY     59  32  36 N7        30.17S
6HR MIN TEMP:  37; 6HR MAX TEMP:  59;

BOSCOBEL       SUNNY     63  32  31 N7G22     30.16F
6HR MIN TEMP:  33; 6HR MAX TEMP:  64;

PRAIRIE DU CHI SUNNY     60  30  32 N6        30.17S
6HR MIN TEMP:  34; 6HR MAX TEMP:  61;

PLATTEVILLE    SUNNY     59  33  37 NW9G18    30.15F
6HR MIN TEMP:  36; 6HR MAX TEMP:  59;

$$

WIZ056-057-062-063-064-067-068-271900-
SOUTH CENTRAL WISCONSIN

CITY           SKY/WX    TMP DP  RH WIND       PRES   REMARKS
REEDSBURG      SUNNY     60  34  38 N13G18    30.13F
6HR MIN TEMP:  33; 6HR MAX TEMP:  60;

BARABOO/DELLS  SUNNY     61  29  29 N10       30.13F
6HR MIN TEMP:  36; 6HR MAX TEMP:  61;

LONE ROCK      SUNNY     62  32  32 N10G18    30.14F
6HR MIN TEMP:  35; 6HR MAX TEMP:  62;

MINERAL POINT  SUNNY     61  28  29 N13       30.14F
MADISON        MOSUNNY   61  34  36 N9G20     30.12F
6HR MIN TEMP:  37; 6HR MAX TEMP:  62;

MIDDLETON      SUNNY     62  29  29 N9        30.13F
6HR MIN TEMP:  37; 6HR MAX TEMP:  62;

WATERTOWN      SUNNY     58  36  42 N13G18    30.11F
6HR MIN TEMP:  37; 6HR MAX TEMP:  58;

MONROE         SUNNY     59  32  36 N10G18    30.13S
JANESVILLE     MOSUNNY   61  30  31 N12G17    30.12F
$$

WIZ051-052-058>065-066-070>072-271900-
SOUTHEAST WISCONSIN

CITY           SKY/WX    TMP DP  RH WIND       PRES   REMARKS
MILWAUKEE      MOSUNNY   48  34  58 NE15      30.14S
6HR MIN TEMP:  42; 6HR MAX TEMP:  51;

WAUKESHA       MOSUNNY   55  34  44 N12G23    30.12F
MILWAUKEE/TIMM SUNNY     54  32  43 E10       30.13S
RACINE         SUNNY     51  35  54 NE13      30.14F
6HR MIN TEMP:  43; 6HR MAX TEMP:  52;

BURLINGTON     SUNNY     56  33  40 N13       30.10F
6HR MIN TEMP:  38; 6HR MAX TEMP:  56;

KENOSHA        SUNNY     55  35  47 N10G20    30.12S
6HR MIN TEMP:  40; 6HR MAX TEMP:  56;

FOND DU LAC    MOSUNNY   57  34  41 NE15      30.13F
6HR MIN TEMP:  40; 6HR MAX TEMP:  57;

SHEBOYGAN      SUNNY     52  35  52 NE16      30.13F
6HR MIN TEMP:  40; 6HR MAX TEMP:  55;

WEST BEND      PTSUNNY   54  32  43 N9        30.11F
JUNEAU         SUNNY     56  33  41 N12G21    30.13F
6HR MIN TEMP:  37; 6HR MAX TEMP:  57;

$$

LSZ147-162-271900-
LAKE SUPERIOR

STATION/POSITION TIME  TEMP    WIND        PRES    WAVE
                       AIR SEA DIR/SP/G            HT/PER
                 (UTC) (F)     (DEG/KT/KT) (MB)    (FT/S)
W MID LAKE BUOY  1750   37 35  230/  6/  6 1024.5F   0
DEVILS ISLAND    1800   49     210/  4/  5 1023.7F
PORT WING        1700   40     330/  2/  4 1024.0F
SAXON HARBOR     1740   44        CALM     1023.7F
$$

LMZ867-665-643>646-271900-
LAKE MICHIGAN

STATION/POSITION TIME  TEMP    WIND        PRES    WAVE
                       AIR SEA DIR/SP/G            HT/PER


USA.gov is the U.S. government's official web portal to all federal, state and local government web resources and services.